User: anonymous   Login
Location: Unspecified
(0.0000°N, 0.0000°E)
Time: 08:59:44
(UTC+00:00)
Language:

STARLINK-5440 - Orbit

View from above orbital plane
View from above orbital plane
View from above satellite
View from above satellite

Ground track
Ground track

The orbit is defined by the following mean orbital elements,

1 54785U          26145.33695432 +.00000000 +00000-0 -21533-5 0 00005
2 54785  53.2142   4.9074 0001282  76.3764 283.7371 15.08837993    02
Epoch (UTC): 25 May 2026 08:05:12
Eccentricity: 0.0001282
inclination: 53.2142°
perigee height: 539 km
apogee height: 541 km
right ascension of ascending node: 4.9074°
argument of perigee: 76.3764°
revolutions per day: 15.08837993
mean anomaly at epoch: 283.7371°

The dashed part of the orbit path shows where the satellite is in the earth's shadow,  

DLR